Starlink 34057

operational
NORAD ID: 63814 Int'l Des: 2025-092 Owner: SPXS Country: US Constellation: starlink
LEOCIRCULAR

Starlink 34057について

説明を読み込み中...

リアルタイム位置

3D地球を読み込み中...

次回通過

高度履歴

Altitude vs Time

uPlot chart will show altitude changes over time

軌道要素

1 63814U 25092L 26036.29481842 .00057949 00000-0 20954-2 0 9991
2 63814 43.0020 355.2049 0002538 256.1647 103.8922 15.27632495 43668
Epoch: Feb 5, 2026 • Age: 5 hours

現在のステータス

高度 487.4 km
速度 7.63 km/s
衛星直下点 41.71°N, 108.51°E
打ち上げ日 May 4, 2025
運用期間 0.7 years
タイプ internet

技術仕様

分類 Payload
質量 575.00 kg
乾燥質量 530.00 kg
総質量 575.00 kg
長さ 0.30 m
直径 4.10 m
スパン 29.00 m
形状 Box + pan
製造者 SPXS
バスタイプ Starlink V2MO
フェーズステータス In Orbit
所有者/国 SPXS/US

大規模コンステレーション

Loading constellations...